Location: Brookfield Center
(41.2406°N, 80.5579°W)
Time: 09:31:32
(UTC+00:00)

Cosmos 1727 Rocket - Pass Details

Date: 18 January 2020
Orbit: 960 x 997 km, 82.9° (Epoch: 16 February)

Event Time Altitude Azimuth Distance (km) Brightness Sun altitude
Rises 00:36:07 0° 355° (N) 3,669 7.0 -25.2°
Reaches altitude 10° 00:38:41 10° 359° (N) 2,714 6.3 -25.7°
Enters shadow 00:42:50 42° 20° (NNE) 1,351 4.5 -26.5°
